TimeEST,TemperatureF,Dew PointF,Humidity,Sea Level PressureIn,VisibilityMPH,Wind Direction,Wind SpeedMPH,Gust SpeedMPH,PrecipitationIn,Events,Conditions,WindDirDegrees,DateUTC
12:53 AM,28.0,21.0,75,30.31,10.0,SE,4.6,-,N/A,,Clear,130,2012-12-06 05:53:00
1:53 AM,28.0,21.0,75,30.30,10.0,Calm,Calm,-,N/A,,Clear,0,2012-12-06 06:53:00
2:53 AM,28.9,21.9,75,30.30,10.0,SSE,3.5,-,N/A,,Clear,150,2012-12-06 07:53:00
3:53 AM,30.0,21.9,72,30.28,10.0,SE,6.9,-,N/A,,Clear,140,2012-12-06 08:53:00
4:53 AM,30.0,21.9,72,30.26,10.0,SSE,9.2,-,N/A,,Clear,150,2012-12-06 09:53:00
5:53 AM,30.9,21.9,69,30.25,10.0,SSE,11.5,-,N/A,,Overcast,150,2012-12-06 10:53:00
6:53 AM,30.9,23.0,72,30.22,10.0,SSE,10.4,-,N/A,,Overcast,150,2012-12-06 11:53:00
7:53 AM,32.0,23.0,69,30.22,10.0,SSE,10.4,-,N/A,,Overcast,160,2012-12-06 12:53:00
8:53 AM,32.0,23.0,69,30.20,10.0,SSE,11.5,-,N/A,,Overcast,160,2012-12-06 13:53:00
9:53 AM,34.0,23.0,64,30.20,10.0,South,10.4,-,N/A,,Overcast,190,2012-12-06 14:53:00
10:53 AM,36.0,25.0,64,30.17,10.0,SSE,12.7,-,N/A,,Overcast,160,2012-12-06 15:53:00
11:53 AM,37.9,25.0,60,30.12,10.0,South,12.7,-,N/A,,Overcast,170,2012-12-06 16:53:00
12:53 PM,39.0,26.1,60,30.09,10.0,South,11.5,-,N/A,,Overcast,170,2012-12-06 17:53:00
1:53 PM,39.9,26.1,58,30.06,10.0,South,9.2,-,N/A,,Overcast,170,2012-12-06 18:53:00
2:53 PM,39.9,27.0,60,30.02,10.0,SSE,11.5,-,N/A,,Overcast,160,2012-12-06 19:53:00
3:53 PM,41.0,27.0,57,30.00,10.0,SSE,10.4,-,N/A,,Overcast,160,2012-12-06 20:53:00
4:53 PM,39.0,28.0,65,30.00,10.0,South,5.8,-,N/A,,Overcast,170,2012-12-06 21:53:00
5:53 PM,39.9,28.9,65,29.99,10.0,South,8.1,-,N/A,,Overcast,170,2012-12-06 22:53:00
6:53 PM,39.9,30.9,70,29.97,10.0,South,10.4,-,N/A,,Overcast,170,2012-12-06 23:53:00
7:53 PM,39.9,32.0,73,29.97,10.0,South,10.4,-,N/A,,Overcast,190,2012-12-07 00:53:00
8:53 PM,41.0,32.0,70,29.96,10.0,South,11.5,-,N/A,,Overcast,190,2012-12-07 01:53:00
9:53 PM,41.0,33.1,73,29.97,10.0,West,11.5,18.4,N/A,,Overcast,270,2012-12-07 02:53:00
10:53 PM,41.0,34.0,76,29.96,10.0,SSW,8.1,-,0.00,,Overcast,200,2012-12-07 03:53:00
11:53 PM,39.9,33.1,77,29.94,10.0,South,9.2,-,N/A,,Overcast,190,2012-12-07 04:53:00